TimeEST,TemperatureF,Dew PointF,Humidity,Sea Level PressureIn,VisibilityMPH,Wind Direction,Wind SpeedMPH,Gust SpeedMPH,PrecipitationIn,Events,Conditions,WindDirDegrees,DateUTC
12:54 AM,41.0,36.0,82,30.30,10.0,Calm,Calm,-,N/A,,Clear,0,2012-12-04 05:54:00
1:24 AM,39.2,35.6,87,30.31,10.0,Calm,Calm,-,N/A,,Mostly Cloudy,0,2012-12-04 06:24:00
1:54 AM,39.0,35.1,86,30.31,10.0,Calm,Calm,-,N/A,,Mostly Cloudy,0,2012-12-04 06:54:00
2:54 AM,41.0,37.9,89,30.30,10.0,Calm,Calm,-,N/A,,Overcast,0,2012-12-04 07:54:00
3:54 AM,41.0,37.9,89,30.30,10.0,Calm,Calm,-,N/A,,Overcast,0,2012-12-04 08:54:00
4:54 AM,41.0,37.0,86,30.31,10.0,North,3.5,-,N/A,,Mostly Cloudy,350,2012-12-04 09:54:00
5:24 AM,39.2,37.4,93,30.31,10.0,Calm,Calm,-,N/A,,Mostly Cloudy,0,2012-12-04 10:24:00
5:54 AM,39.9,37.0,89,30.32,10.0,Calm,Calm,-,N/A,,Overcast,0,2012-12-04 10:54:00
6:06 AM,41.0,37.4,87,30.32,10.0,Calm,Calm,-,N/A,,Overcast,0,2012-12-04 11:06:00
6:54 AM,41.0,37.9,89,30.32,10.0,SSE,3.5,-,N/A,,Overcast,160,2012-12-04 11:54:00
7:26 AM,41.0,39.2,93,30.33,10.0,Calm,Calm,-,N/A,,Overcast,0,2012-12-04 12:26:00
7:49 AM,42.8,39.2,87,30.33,0.8,SSE,4.6,-,N/A,,Overcast,150,2012-12-04 12:49:00
7:54 AM,42.1,39.0,89,30.32,0.5,South,5.8,-,N/A,Fog,Fog,170,2012-12-04 12:54:00
8:15 AM,41.0,39.2,93,30.32,0.2,South,4.6,-,N/A,Fog,Fog,170,2012-12-04 13:15:00
8:24 AM,41.0,39.2,93,30.32,0.2,South,5.8,-,N/A,Fog,Fog,180,2012-12-04 13:24:00
8:54 AM,42.1,39.9,92,30.32,0.2,SSE,5.8,-,N/A,Fog,Fog,160,2012-12-04 13:54:00
9:03 AM,42.8,39.2,87,30.31,0.2,SSE,5.8,-,N/A,Fog,Fog,160,2012-12-04 14:03:00
9:28 AM,42.8,42.8,100,30.32,2.0,South,4.6,-,N/A,,Overcast,170,2012-12-04 14:28:00
9:47 AM,42.8,41.0,93,30.33,3.0,SW,3.5,-,N/A,,Overcast,220,2012-12-04 14:47:00
9:54 AM,43.0,41.0,93,30.32,6.0,South,3.5,-,N/A,,Overcast,180,2012-12-04 14:54:00
10:54 AM,45.0,44.1,97,30.29,7.0,South,4.6,-,0.00,Rain,Light Rain,180,2012-12-04 15:54:00
11:36 AM,44.6,42.8,93,30.27,5.0,SSE,5.8,-,0.00,,Overcast,160,2012-12-04 16:36:00
11:54 AM,46.0,44.1,93,30.25,5.0,SSE,6.9,-,0.00,,Overcast,160,2012-12-04 16:54:00
12:44 PM,46.4,44.6,93,30.23,6.0,SSE,4.6,-,0.00,,Overcast,160,2012-12-04 17:44:00
12:54 PM,46.9,45.0,93,30.22,5.0,SSE,6.9,-,0.00,Rain,Light Rain,160,2012-12-04 17:54:00
1:54 PM,50.0,46.9,89,30.20,6.0,South,9.2,-,0.00,Rain,Light Rain,190,2012-12-04 18:54:00
2:43 PM,50.0,48.2,94,30.19,7.0,South,8.1,-,0.01,,Overcast,190,2012-12-04 19:43:00
2:54 PM,51.1,48.0,89,30.18,7.0,SSW,8.1,-,0.01,,Overcast,200,2012-12-04 19:54:00
3:09 PM,51.8,48.2,88,30.19,7.0,SSW,6.9,-,N/A,,Overcast,200,2012-12-04 20:09:00
3:54 PM,52.0,48.9,89,30.18,6.0,SSW,6.9,-,N/A,,Overcast,200,2012-12-04 20:54:00
4:54 PM,52.0,50.0,93,30.16,7.0,SSW,11.5,-,N/A,,Overcast,200,2012-12-04 21:54:00
5:54 PM,52.0,50.0,93,30.14,7.0,South,11.5,-,N/A,,Overcast,190,2012-12-04 22:54:00
6:25 PM,53.6,51.8,94,30.14,7.0,SSW,11.5,-,N/A,,Overcast,200,2012-12-04 23:25:00
6:54 PM,53.1,51.1,93,30.13,7.0,SSW,9.2,-,N/A,,Overcast,200,2012-12-04 23:54:00
7:13 PM,53.6,51.8,94,30.12,8.0,South,9.2,-,N/A,,Overcast,190,2012-12-05 00:13:00
7:54 PM,55.0,51.1,86,30.10,9.0,SSW,15.0,-,N/A,,Overcast,200,2012-12-05 00:54:00
8:54 PM,55.0,52.0,89,30.06,9.0,SSW,15.0,-,N/A,,Overcast,200,2012-12-05 01:54:00
9:06 PM,55.4,51.8,88,30.05,10.0,SSW,18.4,24.2,N/A,,Overcast,200,2012-12-05 02:06:00
9:54 PM,55.9,53.1,90,30.03,8.0,SSW,17.3,33.4,N/A,,Overcast,200,2012-12-05 02:54:00
10:54 PM,55.9,53.1,90,30.01,9.0,SSW,15.0,-,N/A,,Overcast,200,2012-12-05 03:54:00
11:54 PM,57.0,54.0,89,29.98,10.0,SSW,13.8,21.9,N/A,,Overcast,210,2012-12-05 04:54:00